Regional Weather Roundup
Issued by NWS

Home | Current Version | Previous Version | Text Only | Print | Product List | Glossary On
Versions: 1 2 3 4 5 6 7 8 9 10 11 12 13 14 15 16 17 18 19 20 21 22 23 24 25 26 27 28 29 30 31 32 33 34 35 36 37 38 39 40 41 42 43 44 45 46 47 48 49 50
000
ASUS43 KMKX 022211
RWRWI

WISCONSIN REGIONAL WEATHER ROUNDUP
NATIONAL WEATHER SERVICE MILWAUKEE/SULLIVAN WI
500 PM CDT SUN AUG 02 2015

NOTE: "FAIR" INDICATES FEW OR NO CLOUDS BELOW 12,000 FEET WITH NO
SIGNIFICANT WEATHER AND/OR OBSTRUCTIONS TO VISIBILITY.

WIZ001-002-006>008-014>016-023>028-022300-
NORTHWEST WISCONSIN

CITY           SKY/WX    TMP DP  RH WIND       PRES   REMARKS
SUPERIOR ARPT  MOSUNNY   75  56  52 NW14G23   29.67S
ASHLAND        LGT RAIN  67  63  87 NW7G23    29.67R FOG
HAYWARD        MOSUNNY   77  56  48 VRB6G17   29.67S
SIREN          PTSUNNY   76  56  50 NW12      29.70S
CUMBERLAND     MOSUNNY   75  54  46 NW14G23   29.70R
RICE LAKE      MOSUNNY   77  60  55 W13       29.70S
CHETEK         MOSUNNY   78  63  58 W5        29.68S HX  80
LADYSMITH      MOSUNNY   79  60  51 NW14G21   29.68R HX  80
EAU CLAIRE     MOSUNNY   81  59  47 NW15      29.66R HX  81
MENOMONIE      MOSUNNY   83  58  42 NW16G22   29.68R HX  83
NEW RICHMOND   MOSUNNY   76  58  53 NW13      29.71S
OSCEOLA        MOSUNNY   79  58  48 NW12      29.73S HX  80
$$

WIZ003>005-009-010-017-018-022300-
NORTH CENTRAL WISCONSIN

CITY           SKY/WX    TMP DP  RH WIND       PRES   REMARKS
MANITOWISH WTR SUNNY     73  56  54 NW12G18   29.66R
ARBOR VITAE    MOSUNNY   74  57  53 NW15G23   29.65R
WOODRUFF       MOSUNNY   74  57  53 NW15G23   29.65R
RHINELANDER    MOSUNNY   76  60  57 NW12      29.64R
EAGLE RIVER    MOSUNNY   74  52  45 NW20G26   29.63R
LAND O LAKES   MOSUNNY   73  51  46 N16G24    29.64S
PHILLIPS       MOSUNNY   74  61  61 N7G20     29.65R
TOMAHAWK       MOSUNNY   73  64  73 NW7       29.65R
MEDFORD        MOSUNNY   75  65  70 NW12      29.65S
MERRILL        NOT AVBL
$$

WIZ029-030-035-036-043>047-022300-
CENTRAL WISCONSIN

CITY           SKY/WX    TMP DP  RH WIND       PRES   REMARKS
WAUSAU         CLOUDY    77  59  53 N15G23    29.61R
MOSINEE          N/A     73  68  83 NW12      29.64R
MARSHFIELD     MOSUNNY   79  65  62 NW15G25   29.64R HX  81
STEVENS POINT  PTSUNNY   74  65  71 NW14G26   29.62R
WAUPACA        CLOUDY    74  65  72 W6        29.58R
WAUTOMA        CLOUDY    76  66  71 N7        29.59R
WISC RAPIDS    MOSUNNY   86  64  47 NW20G31   29.62R HX  87
CAMP DOUGLAS   SUNNY     87  68  51 NW23G30   29.61R HX  90
$$

WIZ011>013-019>022-031-037>040-048>050-022300-
NORTHEAST WISCONSIN

CITY           SKY/WX    TMP DP  RH WIND       PRES   REMARKS
ANTIGO         PTSUNNY   74  64  69 NW14G22   29.63R
SHAWANO        CLOUDY    71  64  77 E7        29.59R
OCONTO         CLOUDY    63  63 100 W6        29.60R
STURGEON BAY   CLOUDY    61  55  82 CALM      29.60S
GREEN BAY      CLOUDY    65  62  90 CALM      29.59R
MANITOWOC      TSTM      68  61  78 MISG      29.56R
APPLETON       PTSUNNY   72  61  68 NE13G24   29.59R
CLINTONVILLE   CLOUDY    70  63  78 E3        29.60R
OSHKOSH        TSTM      72  62  71 NW20G31   29.57R
$$

WIZ032>034-041-042-053>061-022300-
SOUTHWEST WISCONSIN

CITY           SKY/WX    TMP DP  RH WIND       PRES   REMARKS
LA CROSSE      MOSUNNY   90  67  46 NW15      29.64R HX  93
SPARTA         MOSUNNY   89  60  38 W18G28    29.64R HX  88
VIROQUA        SUNNY     86  62  43 W14G22    29.68R HX  86
BOSCOBEL       MOSUNNY   94  68  42 W15G28    29.64R HX  98
PRAIRIE DU CHI MOSUNNY   92  64  39 W15G24    29.65S HX  94
PLATTEVILLE    MOSUNNY   88  73  61 W17G32    29.68S HX  95
$$

WIZ056-057-062-063-064-067-068-022300-
SOUTH CENTRAL WISCONSIN

CITY           SKY/WX    TMP DP  RH WIND       PRES   REMARKS
REEDSBURG      PTSUNNY   92  67  44 W25       29.60R HX  95
BARABOO/DELLS  PTSUNNY   89  64  43 W18G30    29.60R HX  90
LONE ROCK      MOSUNNY   92  67  43 W20G31    29.62S HX  95
MINERAL POINT  MOSUNNY   88  70  55 W16G25    29.67F HX  92
MADISON        MOSUNNY   89  70  53 SW13G22   29.60S HX  94
MIDDLETON      MOSUNNY   92  65  41 W21G31    29.63R HX  94
WATERTOWN      SUNNY     88  71  56 SW23G31   29.58S HX  93
MONROE         SUNNY     88  72  58 SW30G38   29.66S HX  94
JANESVILLE     MOSUNNY   91  70  49 SW23G33   29.63F HX  97
$$

WIZ051-052-058>065-066-070>072-022300-
SOUTHEAST WISCONSIN

CITY           SKY/WX    TMP DP  RH WIND       PRES   REMARKS
MILWAUKEE      MOSUNNY   92  65  40 SW30G41   29.58F HX  94
WAUKESHA       SUNNY     88  64  45 SW24G30   29.61S HX  89
MILWAUKEE/TIMM SUNNY     90  59  35 SW26G37   29.58S HX  89
RACINE         SUNNY     91  67  44 SW22G37   29.61F HX  94
BURLINGTON     SUNNY     87  66  49 SW17G29   29.62S HX  90
KENOSHA        SUNNY     90  68  48 SW26G38   29.62F HX  94
FOND DU LAC    PTSUNNY   85  65  51 NW33G41   29.61R THUNDER HX  86
SHEBOYGAN      MOSUNNY   87  68  52 W23G32    29.54R HX  90
WEST BEND      MOSUNNY   88  63  42 SW21G30   29.56R HX  88
JUNEAU         MOSUNNY   88  70  55 SW25G35   29.59S HX  92
$$

LSZ147-162-022300-
LAKE SUPERIOR

STATION/POSITION TIME  TEMP    WIND        PRES    WAVE
                       AIR SEA DIR/SP/G            HT/PER
                 (UTC) (F)     (DEG/KT/KT) (MB)    (FT/S)
W MID LAKE BUOY  2150   60 57  260/ 12/ 16 1002.3F   1/ 3
DEVILS ISLAND    2200   65     270/ 12/ 15 1003.5R
PORT WING        2100   69     270/ 20/ 24 1004.7R
SAXON HARBOR     2100   74                 1003.7
$$

LMZ867-665-643>646-022300-
LAKE MICHIGAN

STATION/POSITION TIME  TEMP    WIND        PRES    WAVE
                       AIR SEA DIR/SP/G            HT/PER
                 (UTC) (F)     (DEG/KT/KT) (MB)    (FT/S)
CHAMBERS ISLAND  2100   65     140/  3/  9 1001.0F
S GREEN BAY BUOY 2200   66 68  140/  8/ 10 1003.5
N MID LAKE BUOY  2150   68 69  170/  4/  4 1000.3R   2/ 5
NORTHPORT PIER   2200   67     160/  5/ 14 1001.4S
ALGOMA LAKESHORE 2112           10/ 13/ 16   N/A
KEWAUNEE LAKESHO 2100   59     270/  7/ 12  998.5F
SHEBOYGAN LAKESH 2200   88     250/ 18/ 22  999.9R
PORT WASHINGTON  2130   93     240/ 15/ 25 1000.3F
ATWATER BUOY     2200   81 51  220/ 19/ 29 1002.6F
MILWAUKEE LAKESH 2100   88     220/ 27/ 36   N/A
KENOSHA   LAKESH 2200   91     230/ 21/ 33 1002.4F
$$

TC  - TEMPERATURE IN CELSIUS
VSB - VISIBILITY IN STATUTE MILES
WCI - WIND CHILL INDEX
HX  - HEAT INDEX




USA.gov is the U.S. government's official web portal to all federal, state and local government web resources and services.